FENGYUN 4B

Last updated on Mon Jun 22 2026 00:03:07 GMT+0000 (Coordinated Universal Time)

1 48808U 21047A 26172.55343015 -.00000332 00000+0 00000+0 0 9993 2 48808 0.1647 78.1229 0005927 276.9641 218.5870 1.00275001 18618
UTC large
Height (km)
Speed (km/s)
/
Latitude / Longitude
Inclination (degrees)
Orbital Period (minutes)
Azimuth
Elevation
Range (km)
Doppler Factor

Next 0 passes for location: London (51.5072 / 0.1276)

No passes found over London.
FENGYUN 4B